Wind_Speed
25 24 22 23 23 21 19 18 18 16 13 12 15 16 17 17 17 18 19 19 19 18 18 17 16 14 12 13 12 10 9 10 23 12 14 21 24 24 22 19 19 25 27 27 28
28 29 29 28 26 25 25 25 24 22 19 17 16 16 16 16 18 20 21 22 23 23 23 25 23 21 17 14 11 4 7 3 20 14 18 20 19 15 15 19 23 27 29 31 32
35 33 34 34 32 30 29 29 28 27 26 23 22 21 19 18 19 19 20 23 24 25 26 27 26 24 21 15 11 0 7 6 15 31 23 17 21 16 20 24 28 31 31 31 37
42 41 38 39 37 37 35 34 33 31 30 28 26 25 24 23 24 24 22 22 23 23 26 28 28 23 18 17 15 6 16 20 21 25 20 15 18 19 21 23 26 30 33 37 40
47 46 44 42 42 40 40 39 38 35 34 32 31 29 28 26 26 25 25 26 25 24 26 26 27 27 21 18 17 13 12 21 23 21 16 17 16 20 19 23 26 29 36 43 44
47 46 46 45 44 44 43 41 40 39 38 35 34 31 31 30 29 27 26 27 27 27 26 24 25 24 22 19 17 8 14 25 17 19 20 19 17 18 22 22 24 31 43 42 36
44 45 45 46 44 43 44 43 42 42 40 38 36 35 33 33 31 30 28 28 28 28 26 25 24 22 22 16 14 17 19 25 21 20 20 18 20 18 23 21 28 36 44 38 34
37 37 37 39 41 42 42 43 44 44 41 39 38 37 36 35 32 30 28 28 26 23 21 19 18 19 18 19 17 17 20 16 20 21 20 20 17 16 20 18 26 35 41 24 28
29 28 29 31 33 36 39 42 42 41 40 37 38 38 38 37 33 30 30 26 20 15 14 12 12 12 17 19 13 13 13 12 10 17 17 17 13 16 16 16 23 31 35 25 10
21 20 20 22 26 28 30 34 36 38 38 36 37 36 37 36 35 29 29 23 12 5 9 16 13 18 9 12 7 12 9 12 16 21 15 13 15 15 15 16 20 29 26 17 15
11 11 12 14 17 20 21 25 28 32 34 35 35 33 35 34 30 27 25 17 8 9 17 14 12 13 8 16 9 4 20 17 19 18 20 13 15 16 14 16 18 23 16 12 19
5 3 2 5 8 11 13 15 18 21 26 29 32 33 33 31 26 24 23 14 11 17 10 13 19 24 30 20 24 20 11 19 26 17 14 12 13 16 11 11 15 19 16 13 19
6 4 2 0 3 6 8 10 11 13 16 19 20 24 23 23 20 20 21 15 18 32 31 6 27 34 30 37 35 29 9 21 9 11 16 13 13 17 10 11 15 15 17 5 13
6 6 5 3 1 1 2 3 4 6 9 10 13 16 15 14 12 15 20 18 25 34 44 32 18 13 18 30 35 24 20 24 14 7 6 14 9 11 7 9 13 7 15 5 8
7 6 5 5 4 4 3 3 3 3 2 1 2 4 5 3 5 11 16 16 24 39 43 32 30 34 31 19 24 24 22 6 9 12 20 10 10 23 14 11 17 7 7 15 1
11 10 10 9 8 7 7 6 6 5 4 2 2 2 3 3 3 7 11 13 21 32 44 47 47 44 40 32 26 23 23 7 7 13 17 23 18 21 20 12 16 8 3 9 13
14 14 13 12 12 12 9 9 5 6 4 5 5 5 3 3 4 3 9 12 13 18 24 37 43 49 38 30 24 18 12 7 16 8 20 17 26 22 19 19 12 10 4 4 6
17 15 14 13 11 10 8 8 12 6 7 8 10 9 9 6 1 4 5 9 14 18 26 26 38 38 35 24 27 29 26 14 7 11 17 19 28 21 26 14 16 15 10 5 4
14 15 16 15 14 12 12 11 9 7 8 9 9 10 9 8 7 4 4 9 14 19 17 17 30 31 34 26 34 32 32 15 24 10 19 18 38 33 28 25 24 17 13 12 8
15 16 14 13 12 12 11 12 9 11 13 13 11 9 9 9 7 4 3 3 7 11 16 17 28 33 28 34 42 39 40 22 30 34 39 23 16 27 32 34 29 25 18 10 12
19 20 18 18 14 13 11 10 10 12 11 12 14 14 12 12 10 8 4 1 1 4 7 13 15 15 21 36 44 38 48 47 26 15 32 17 32 36 31 34 32 32 25 18 15
13 16 18 18 16 15 15 15 16 16 16 15 14 13 13 13 12 11 9 7 2 1 3 5 10 14 10 37 51 38 43 46 41 47 34 23 26 24 31 29 30 31 32 24 18
12 15 16 16 16 17 17 16 18 20 21 21 21 20 18 16 14 14 14 11 10 9 7 4 4 9 16 39 51 48 46 50 56 51 53 45 32 9 16 27 34 31 33 26 23
12 13 14 13 13 14 15 14 17 18 19 22 23 23 25 22 17 16 17 18 16 12 11 12 9 7 11 21 43 53 51 50 52 59 58 51 50 41 18 24 33 31 34 29 24
12 13 12 11 11 13 16 17 18 19 20 22 22 23 22 24 27 26 23 18 20 20 17 13 14 11 10 15 26 51 58 51 56 46 53 47 43 48 34 24 36 36 33 28 28
10 14 14 15 16 17 19 18 18 20 21 19 23 22 23 25 24 26 28 30 29 21 21 20 18 15 14 14 18 36 52 62 59 61 53 50 53 50 57 47 34 41 34 32 30
13 14 16 17 16 16 18 20 22 24 22 22 24 25 23 27 25 24 26 30 31 33 26 23 21 22 19 16 14 31 41 65 72 62 61 58 64 55 61 60 56 38 39 37 33
Wind_Direction
279 277 274 273 274 272 274 277 276 274 262 256 255 253 256 256 259 266 275 271 268 269 274 278 281 286 297 300 291 277 252 260 295 289 306 297 301 293 287 296 290 293 289 297 297
275 273 273 273 271 269 270 269 270 272 271 267 260 257 254 254 254 259 262 268 275 278 276 277 281 285 289 302 320 321 259 297 255 272 299 309 306 293 292 291 289 292 296 306 301
276 271 272 268 266 267 266 267 268 269 267 266 267 262 255 255 258 259 261 263 267 270 275 279 280 282 287 295 300 175 165 38 269 266 290 296 300 305 297 290 293 302 306 304 299
277 275 270 268 266 262 262 263 265 265 266 262 262 265 263 261 259 262 260 261 261 265 268 275 279 283 289 288 290 292 211 208 237 261 270 285 292 303 299 308 306 303 307 304 296
274 273 270 266 264 262 260 259 261 261 260 262 260 260 263 262 262 262 265 265 265 265 266 272 280 284 283 279 282 281 278 244 243 253 266 273 286 297 310 318 316 310 308 312 309
272 269 268 267 262 261 261 259 258 259 258 257 259 261 259 261 263 265 268 269 272 272 272 281 284 288 282 281 257 218 194 257 268 258 265 273 288 305 319 319 318 318 325 322 316
271 269 266 265 262 257 256 257 256 254 256 256 256 259 260 261 262 264 268 268 270 274 281 289 295 286 281 271 265 248 248 271 280 264 265 276 296 304 321 319 325 334 329 329 330
273 267 264 261 258 254 252 251 251 251 253 254 257 257 259 260 263 265 270 272 274 284 294 300 302 295 286 272 272 262 260 285 282 269 264 279 289 313 321 314 341 341 338 334 343
277 270 264 259 257 252 249 249 252 253 255 255 256 257 259 262 261 266 270 273 280 296 313 334 305 302 278 275 270 233 227 262 268 290 265 275 288 316 313 330 347 344 344 354 353
281 273 267 258 254 253 250 249 251 252 253 252 252 254 255 257 258 261 264 270 273 329 47 10 345 339 289 8 316 202 189 252 163 249 254 266 285 310 302 348 344 346 355 13 23
289 277 264 253 251 247 244 246 247 249 252 252 254 255 257 257 258 259 262 262 233 124 108 161 254 295 223 308 328 199 220 239 229 240 259 273 287 303 309 336 332 0 9 15 18
332 328 275 249 240 238 243 246 249 249 251 253 255 256 258 259 259 254 252 239 202 165 99 53 268 258 278 279 264 271 239 243 255 271 261 260 298 291 304 317 331 4 16 48 30
0 9 27 220 246 246 252 258 258 256 251 256 257 261 259 259 253 244 241 218 191 170 184 159 252 257 250 271 276 270 268 235 232 243 232 248 270 279 287 298 319 19 33 54 65
18 26 42 58 64 285 253 255 262 261 259 257 253 261 261 257 246 234 231 205 182 181 183 205 234 196 277 261 255 272 234 254 250 227 306 261 351 266 268 290 308 314 31 29 112
44 51 53 54 55 67 75 97 98 94 83 345 316 284 292 270 206 205 217 193 186 190 189 200 212 187 202 248 250 235 209 258 206 186 283 288 289 267 279 254 289 310 349 28 134
46 52 62 66 68 70 67 66 67 56 47 30 329 319 325 287 236 191 207 201 185 190 200 206 206 215 222 238 238 243 220 223 180 201 209 234 226 260 268 238 264 283 7 16 12
53 58 62 65 71 74 76 75 68 54 34 10 0 351 332 258 242 225 202 189 185 197 201 206 212 212 223 228 228 208 191 290 239 227 232 243 248 241 257 228 239 232 238 348 0
46 47 54 63 65 72 66 53 60 2 48 25 21 12 14 10 21 186 223 218 195 200 207 207 212 223 228 227 211 185 187 182 229 254 245 229 227 228 235 249 239 231 234 294 336
51 48 46 50 52 49 40 39 30 12 18 18 13 14 5 357 9 358 183 194 210 210 200 206 219 227 220 216 195 190 177 197 162 163 130 239 241 234 236 264 249 241 248 262 270
60 59 51 44 40 38 39 37 17 29 23 22 20 12 5 359 2 6 328 221 214 223 203 198 201 213 202 191 188 198 186 180 174 180 170 194 245 238 252 262 258 244 246 246 231
61 56 48 45 45 42 34 21 14 18 12 4 1 0 7 9 3 10 11 47 224 213 225 205 229 255 204 188 187 194 193 203 187 174 214 257 242 247 249 254 257 255 253 254 238
50 44 35 33 31 26 25 27 37 31 20 5 349 344 346 351 350 355 353 354 339 11 290 265 253 222 231 195 190 199 197 212 208 211 188 200 217 234 243 257 260 262 251 247 241
34 28 24 20 19 23 22 21 21 20 19 15 14 8 1 341 332 331 328 330 322 325 308 300 303 257 212 197 195 195 192 204 210 212 222 214 204 188 261 255 244 245 256 241 255
5 15 18 17 14 18 17 20 8 4 0 3 359 358 357 354 356 336 321 315 313 312 309 317 303 292 258 219 218 197 199 206 206 212 216 223 223 220 262 254 221 231 245 255 243
356 3 10 15 13 5 7 5 1 6 3 360 359 353 350 339 346 342 345 330 309 303 303 299 294 283 269 259 217 220 204 214 221 224 221 229 222 219 209 231 230 228 242 246 247
349 358 0 359 354 352 349 356 348 346 346 348 352 350 345 339 349 339 335 334 338 316 297 294 293 287 281 279 235 196 212 215 217 230 226 225 237 212 223 233 250 230 240 247 250
343 340 338 339 339 338 336 338 334 329 332 333 330 333 336 330 335 333 335 331 327 322 318 301 286 288 285 277 265 226 203 215 221 226 230 229 237 233 220 229 236 237 239 239 241
Height
10996 10996 10996 10996 10996 10997 10997 10996 10995 10996 10998 10998 10998 10998 10998 11000 11001 11000 11000 11001 11002 11004 11004 11004 11004 11006 11007 11008 11011 11013 11014 11010 11004 11006 11000 11001 10999 10999 10997 10996 10995 10995 10992 10990 10987
10991 10990 10990 10990 10991 10991 10991 10992 10991 10991 10993 10995 10995 10995 10996 10997 10998 10998 10999 10998 10998 10999 11001 11001 11001 11003 11005 11006 11006 11007 11005 11006 11003 11002 11000 10998 10997 10996 10995 10993 10992 10990 10989 10986 10983
10982 10982 10981 10982 10983 10984 10985 10985 10986 10986 10987 10989 10990 10992 10993 10994 10995 10995 10995 10995 10996 10996 10995 10995 10996 10999 11001 11003 11003 11004 11003 11009 11002 11000 10995 10996 10995 10993 10992 10991 10989 10986 10984 10981 10976
10971 10971 10973 10972 10974 10975 10977 10979 10979 10980 10980 10983 10985 10986 10988 10990 10991 10991 10992 10992 10992 10993 10993 10991 10992 10995 10997 10999 10999 11002 11002 10999 10992 10996 10994 10994 10993 10993 10991 10989 10987 10982 10977 10971 10966
10960 10960 10960 10962 10963 10964 10967 10969 10970 10972 10973 10975 10977 10980 10982 10984 10985 10986 10988 10988 10989 10990 10989 10989 10988 10991 10994 10995 10996 10996 10998 10998 10994 10993 10994 10991 10991 10990 10989 10987 10983 10978 10970 10964 10955
10947 10947 10948 10949 10952 10953 10956 10959 10961 10963 10964 10967 10969 10973 10976 10977 10979 10981 10984 10984 10985 10984 10985 10986 10986 10988 10991 10991 10991 10993 10991 10992 10991 10991 10991 10990 10989 10988 10986 10983 10979 10973 10964 10955 10944
10933 10934 10935 10936 10938 10942 10944 10947 10950 10953 10955 10959 10963 10965 10968 10970 10973 10975 10979 10980 10979 10979 10982 10983 10983 10983 10984 10987 10987 10989 10989 10988 10986 10988 10989 10988 10987 10986 10984 10981 10976 10968 10960 10949 10939
10920 10921 10922 10924 10926 10929 10932 10935 10938 10941 10947 10951 10954 10957 10959 10962 10966 10969 10973 10973 10974 10978 10980 10980 10979 10977 10979 10982 10983 10983 10983 10984 10985 10985 10988 10987 10985 10984 10981 10978 10974 10967 10956 10948 10940
10910 10911 10913 10914 10915 10918 10922 10925 10929 10933 10938 10944 10946 10948 10951 10954 10960 10964 10965 10967 10972 10975 10976 10976 10972 10973 10971 10976 10980 10979 10980 10981 10984 10982 10984 10985 10984 10982 10979 10977 10972 10967 10957 10948 10944
10903 10904 10905 10906 10908 10911 10915 10918 10922 10925 10929 10933 10935 10940 10942 10946 10951 10958 10958 10963 10970 10973 10976 10973 10970 10970 10972 10973 10976 10979 10977 10979 10983 10980 10983 10984 10983 10981 10979 10975 10972 10967 10959 10952 10947
10899 10899 10900 10901 10903 10905 10908 10911 10915 10918 10920 10923 10927 10931 10932 10938 10945 10950 10952 10959 10965 10971 10972 10976 10967 10969 10972 10972 10975 10976 10978 10977 10977 10982 10983 10983 10983 10981 10980 10976 10973 10969 10962 10957 10953
10897 10896 10897 10898 10900 10902 10904 10907 10910 10912 10914 10916 10919 10922 10925 10930 10939 10943 10945 10955 10961 10969 10975 10972 10968 10967 10972 10974 10973 10972 10975 10976 10977 10981 10982 10981 10980 10979 10979 10977 10974 10970 10964 10961 10959
10897 10896 10897 10898 10899 10900 10902 10904 10906 10908 10910 10911 10913 10914 10919 10923 10930 10934 10937 10947 10954 10951 10959 10957 10955 10961 10966 10962 10967 10969 10973 10973 10973 10973 10976 10976 10978 10979 10978 10977 10975 10972 10967 10967 10964
10897 10897 10897 10898 10899 10899 10901 10902 10904 10905 10906 10907 10909 10909 10912 10917 10923 10926 10929 10939 10945 10947 10946 10946 10949 10958 10952 10949 10960 10965 10968 10968 10971 10977 10978 10976 10978 10979 10978 10978 10976 10975 10971 10969 10969
10898 10898 10898 10898 10899 10901 10902 10903 10904 10905 10906 10907 10907 10908 10910 10913 10918 10921 10923 10932 10937 10940 10941 10945 10945 10946 10946 10952 10954 10962 10967 10966 10971 10972 10968 10979 10978 10976 10976 10977 10976 10975 10972 10972 10971
10900 10899 10899 10899 10900 10902 10903 10904 10905 10906 10907 10907 10907 10908 10910 10911 10914 10918 10920 10926 10932 10933 10934 10939 10937 10941 10943 10952 10954 10957 10964 10965 10968 10970 10971 10975 10973 10974 10974 10976 10976 10976 10973 10973 10972
10903 10902 10902 10902 10903 10904 10904 10905 10906 10908 10908 10908 10909 10909 10910 10911 10912 10915 10917 10920 10925 10929 10933 10935 10938 10939 10945 10950 10950 10961 10963 10966 10965 10968 10967 10975 10973 10972 10973 10974 10974 10974 10973 10974 10974
10906 10906 10906 10906 10906 10906 10906 10907 10907 10909 10908 10908 10908 10908 10909 10910 10911 10912 10914 10917 10919 10922 10922 10927 10929 10935 10940 10944 10945 10950 10955 10961 10963 10968 10966 10966 10967 10970 10970 10971 10972 10973 10973 10975 10976
10910 10909 10909 10909 10909 10909 10909 10909 10908 10909 10909 10909 10909 10909 10909 10909 10909 10911 10913 10915 10917 10918 10921 10925 10927 10931 10934 10938 10939 10945 10952 10956 10961 10965 10972 10961 10965 10966 10966 10967 10970 10971 10973 10975 10976
10914 10913 10913 10912 10912 10911 10912 10911 10910 10910 10909 10909 10909 10909 10909 10908 10908 10909 10910 10912 10913 10913 10917 10919 10920 10922 10929 10929 10934 10939 10945 10950 10954 10963 10959 10956 10960 10961 10962 10963 10967 10970 10971 10973 10975
10918 10917 10916 10915 10914 10914 10913 10913 10912 10910 10910 10910 10909 10909 10909 10909 10908 10908 10909 10910 10911 10910 10912 10916 10918 10920 10925 10925 10930 10934 10942 10948 10955 10955 10956 10958 10956 10955 10957 10960 10963 10966 10967 10971 10974
10920 10920 10920 10919 10917 10916 10915 10915 10913 10912 10912 10911 10910 10910 10909 10908 10908 10908 10908 10908 10909 10910 10910 10911 10913 10913 10918 10922 10926 10930 10935 10937 10943 10943 10945 10944 10947 10955 10958 10958 10959 10962 10964 10968 10972
10923 10922 10921 10920 10919 10919 10918 10917 10916 10915 10915 10914 10912 10911 10910 10909 10908 10907 10906 10907 10908 10908 10909 10909 10909 10911 10912 10917 10918 10922 10925 10925 10929 10936 10937 10948 10947 10942 10951 10950 10952 10955 10959 10963 10967
10924 10924 10922 10921 10920 10919 10918 10918 10917 10917 10916 10915 10913 10912 10910 10909 10908 10907 10906 10904 10904 10905 10906 10906 10907 10908 10909 10911 10914 10918 10918 10920 10922 10924 10926 10932 10941 10944 10945 10945 10942 10948 10953 10956 10961
10923 10922 10922 10922 10921 10920 10919 10918 10918 10917 10916 10914 10913 10911 10911 10908 10908 10906 10904 10904 10901 10901 10902 10903 10903 10905 10906 10906 10908 10911 10917 10917 10917 10916 10922 10930 10936 10936 10937 10925 10933 10940 10945 10949 10953
10922 10921 10920 10920 10920 10919 10918 10917 10916 10914 10914 10913 10911 10910 10909 10907 10907 10904 10903 10901 10900 10899 10898 10898 10898 10899 10899 10900 10899 10900 10909 10914 10912 10915 10913 10919 10923 10926 10926 10923 10929 10936 10940 10943 10946
10921 10920 10919 10918 10917 10916 10915 10914 10913 10912 10911 10910 10909 10906 10905 10904 10904 10903 10901 10899 10897 10895 10895 10893 10894 10893 10893 10894 10893 10892 10893 10895 10897 10899 10909 10912 10907 10918 10919 10924 10929 10933 10938 10940 10942